GW7346 Weather Reports


time (UTC)temp
C
wind
direction
speed
KPH
gust
KPH
rain 1hr
cm
rain 24hr
cm
rain mn
cm
humidity
%
barometer
mb
20260507085503 12 33 0.0 6.4 0.03 0.64 0.15 87 1011.8
20260507085003 12 340 1.6 6.4 0.03 0.64 0.15 87 1011.8
20260507084506 12 65 1.6 12.9 0.03 0.64 0.15 87 1011.8
20260507084004 12 342 3.2 12.9 0.03 0.64 0.15 87 1011.9
20260507083504 12 122 0.0 11.3 0.03 0.64 0.15 87 1011.9
20260507083012 12 74 4.8 11.3 0.03 0.64 0.15 88 1011.8
20260507082503 12 346 3.2 9.7 0.03 0.64 0.15 89 1011.6
20260507082008 12 328 1.6 8.0 0.03 0.64 0.15 89 1011.6
20260507081508 12 22 3.2 8.0 0.03 0.64 0.15 89 1011.4
20260507081008 12 334 1.6 8.0 0.03 0.64 0.15 89 1011.4
20260507080505 12 22 3.2 8.0 0.03 0.64 0.15 89 1011.4
20260507080023 12 343 3.2 12.9 0.03 0.64 0.15 88 1011.4
20260507075510 12 346 3.2 14.5 0.00 0.61 0.13 88 1011.3
20260507075014 12 360 8.0 14.5 0.00 0.61 0.13 88 1011.3
20260507074528 12 352 6.4 20.9 0.00 0.61 0.13 88 1011.0
20260507074003 12 312 6.4 20.9 0.00 0.61 0.13 88 1011.0
20260507073504 12 275 4.8 17.7 0.00 0.61 0.13 88 1011.0
20260507073012 13 337 6.4 17.7 0.00 0.61 0.13 88 1011.2
20260507072503 13 331 6.4 16.1 0.00 0.61 0.13 88 1011.2
20260507072006 13 348 6.4 19.3 0.00 0.61 0.13 88 1011.1
20260507071518 13 360 4.8 19.3 0.00 0.61 0.13 88 1010.7
20260507071005 13 5 9.7 19.3 0.00 0.61 0.13 88 1010.6
20260507070507 13 352 8.0 25.7 0.03 0.61 0.13 89 1010.5
20260507070028 13 336 11.3 25.7 0.03 0.61 0.13 91 1010.6
20260507065504 13 333 11.3 22.5 0.03 0.61 0.13 92 1010.8
20260507065007 13 24 8.0 17.7 0.03 0.61 0.13 93 1010.8
20260507064518 13 338 8.0 14.5 0.03 0.61 0.13 93 1010.8
20260507064006 13 319 3.2 14.5 0.03 0.61 0.13 93 1010.9
20260507063507 13 336 1.6 14.5 0.03 0.61 0.13 92 1010.7
20260507063024 13 352 4.8 14.5 0.03 0.61 0.13 92 1010.5
20260507062504 13 46 4.8 12.9 0.05 0.61 0.13 92 1010.4
20260507062003 13 346 4.8 12.9 0.08 0.61 0.13 92 1010.4
20260507061513 13 333 4.8 9.7 0.13 0.61 0.13 92 1010.6
20260507061002 13 5 4.8 12.9 0.13 0.61 0.13 92 1010.9
20260507060503 13 321 3.2 12.9 0.10 0.58 0.10 92 1010.9
20260507060018 13 319 0.0 14.5 0.10 0.58 0.10 91 1010.7
20260507055507 13 350 8.0 14.5 0.10 0.58 0.10 91 1011.0
20260507055006 13 339 3.2 14.5 0.10 0.58 0.10 91 1010.9
20260507054531 13 293 8.0 14.5 0.10 0.58 0.10 90 1010.9
20260507054011 14 5 8.0 16.1 0.10 0.58 0.10 90 1011.0
20260507053505 14 347 8.0 16.1 0.10 0.58 0.10 89 1010.9
20260507053014 14 342 4.8 20.9 0.10 0.58 0.10 88 1010.8
20260507052506 15 304 9.7 25.7 0.08 0.56 0.08 86 1011.3
20260507052009 15 348 9.7 25.7 0.05 0.53 0.05 83 1010.9
20260507051524 16 349 12.9 24.1 0.00 0.48 0.00 81 1011.3
20260507051005 16 346 4.8 19.3 0.00 0.48 0.00 80 1011.2
20260507050504 16 352 9.7 20.9 0.00 0.48 0.00 78 1011.1
20260507050021 16 340 9.7 25.7 0.00 0.48 0.00 77 1011.3
20260507045506 16 322 14.5 25.7 0.00 0.48 0.00 76 1010.9
20260507045006 16 327 12.9 22.5 0.00 0.48 0.00 77 1010.9
20260507044518 17 348 8.0 24.1 0.00 0.48 0.00 78 1010.8
20260507044008 17 349 9.7 24.1 0.00 0.48 0.00 78 1011.0
20260507043011 17 315 3.2 19.3 0.00 0.48 0.00 80 1010.7
20260507042504 17 288 6.4 17.7 0.00 0.48 0.00 80 1010.9
20260507042004 17 275 3.2 11.3 0.00 0.48 0.00 81 1010.6
20260507041508 17 352 3.2 11.3 0.00 0.48 0.00 80 1010.5
20260507040507 17 309 1.6 8.0 0.00 0.48 0.00 80 1010.2
20260507040002 17 288 1.6 8.0 0.00 0.48 0.00 80 1010.0
20260507035503 17 325 1.6 9.7 0.00 0.48 0.48 79 1009.8
20260507035003 17 327 1.6 14.5 0.00 0.48 0.48 79 1010.1
20260507034507 17 305 3.2 14.5 0.00 0.48 0.48 78 1010.3
20260507034002 17 345 6.4 14.5 0.00 0.48 0.48 78 1010.6
20260507033505 17 300 6.4 14.5 0.00 0.48 0.48 78 1010.6
20260507033003 17 331 4.8 14.5 0.00 0.48 0.48 78 1010.4
20260507032504 18 335 3.2 12.9 0.00 0.48 0.48 78 1010.2
20260507032002 18 319 6.4 12.9 0.00 0.48 0.48 78 1010.1
20260507031502 18 335 4.8 16.1 0.00 0.48 0.48 77 1010.1
20260507031004 18 302 6.4 16.1 0.00 0.48 0.48 77 1010.1
20260507030504 18 360 6.4 16.1 0.00 0.48 0.48 77 1010.1
20260507030010 18 229 6.4 16.1 0.00 0.48 0.48 77 1010.1
20260507025504 19 352 8.0 16.1 0.00 0.48 0.48 77 1010.0
20260507025004 19 301 8.0 14.5 0.00 0.48 0.48 80 1010.1
20260507024516 19 315 6.4 14.5 0.00 0.48 0.48 80 1010.0
20260507024011 19 329 4.8 17.7 0.00 0.48 0.48 81 1009.8
20260507023503 19 346 9.7 17.7 0.00 0.48 0.48 82 1009.6
20260507023007 19 286 4.8 14.5 0.00 0.48 0.48 83 1009.6
20260507022503 19 263 1.6 14.5 0.00 0.48 0.48 83 1009.7
20260507022003 19 316 4.8 14.5 0.00 0.48 0.48 84 1009.4
20260507021503 19 323 0.0 6.4 0.00 0.48 0.48 85 1009.4
20260507021003 19 331 3.2 6.4 0.00 0.48 0.48 85 1009.4
20260507020502 19 330 1.6 6.4 0.00 0.48 0.48 85 1009.4
20260507020006 19 319 0.0 6.4 0.00 0.48 0.48 85 1009.4
20260507015503 19 294 1.6 6.4 0.00 0.48 0.48 85 1009.3
20260507015002 19 342 0.0 3.2 0.00 0.48 0.48 85 1009.3
20260507014508 19 252 0.0 0.0 0.00 0.48 0.48 85 1009.5
20260507014003 19 252 0.0 0.0 0.00 0.48 0.48 84 1009.7
20260507013503 19 252 0.0 0.0 0.00 0.48 0.48 84 1009.6
20260507013038 19 252 0.0 0.0 0.00 0.48 0.48 84 1009.7
20260507012506 19 252 0.0 0.0 0.00 0.48 0.48 83 1009.6
20260507012009 19 252 0.0 0.0 0.00 0.48 0.48 83 1009.6
20260507011514 19 252 0.0 0.0 0.00 0.48 0.48 83 1009.8
20260507011003 19 252 0.0 0.0 0.00 0.48 0.48 83 1009.7
20260507010503 19 252 0.0 3.2 0.00 0.48 0.48 83 1009.7
20260507010010 19 252 0.0 3.2 0.00 0.48 0.48 82 1009.6
20260507005504 19 266 0.0 3.2 0.00 0.48 0.48 82 1009.5
20260507005001 20 266 0.0 6.4 0.00 0.48 0.48 82 1009.6
20260507004510 20 221 1.6 6.4 0.00 0.48 0.48 82 1009.5
20260507004006 20 209 0.0 3.2 0.00 0.48 0.48 82 1009.3
20260507003503 20 213 0.0 6.4 0.00 0.48 0.48 82 1009.1
20260507003006 20 184 0.0 6.4 0.00 0.48 0.48 82 1009.4
20260507002510 20 173 0.0 6.4 0.00 0.48 0.48 81 1009.2
20260507002004 20 178 0.0 6.4 0.00 0.48 0.48 81 1009.0
20260507001515 20 196 0.0 6.4 0.00 0.48 0.48 81 1009.2
20260507001007 20 159 1.6 8.0 0.00 0.48 0.48 80 1009.2
20260507000507 20 161 1.6 8.0 0.00 0.48 0.48 81 1009.2
20260507000022 20 207 1.6 6.4 0.00 0.48 0.48 80 1009.2
20260506235503 20 141 0.0 6.4 0.00 0.48 0.48 80 1009.0
20260506235003 20 213 0.0 8.0 0.00 0.48 0.48 79 1009.3
20260506234505 20 162 1.6 8.0 0.00 0.48 0.48 79 1009.1
20260506234006 20 237 1.6 8.0 0.00 0.48 0.48 79 1009.0
20260506233505 20 187 0.0 9.7 0.00 0.48 0.48 79 1009.0
20260506233012 20 209 1.6 9.7 0.00 0.48 0.48 79 1009.0
20260506232502 20 178 3.2 9.7 0.00 0.48 0.48 78 1008.7
20260506232009 20 198 1.6 11.3 0.00 0.48 0.48 78 1008.8
20260506231504 20 178 4.8 11.3 0.00 0.48 0.48 78 1008.7
20260506231004 21 260 1.6 9.7 0.00 0.48 0.48 78 1008.9
20260506230507 21 209 4.8 9.7 0.00 0.48 0.48 78 1008.8
20260506230014 21 215 3.2 9.7 0.00 0.48 0.48 79 1008.8
20260506225507 21 194 4.8 9.7 0.00 0.48 0.48 78 1008.6
20260506225008 21 194 3.2 9.7 0.00 0.48 0.48 78 1008.7
20260506224525 21 229 3.2 12.9 0.00 0.48 0.48 78 1008.7
20260506224003 21 200 1.6 12.9 0.00 0.48 0.48 77 1008.7
20260506223503 21 212 4.8 9.7 0.00 0.48 0.48 77 1008.7
20260506223007 21 25 0.0 14.5 0.00 0.48 0.48 77 1008.7
20260506222504 21 195 0.0 14.5 0.00 0.48 0.48 76 1008.8
20260506222006 21 223 6.4 12.9 0.00 0.48 0.48 76 1008.8
20260506221514 21 149 0.0 12.9 0.00 0.48 0.48 76 1008.8
20260506221006 21 216 1.6 14.5 0.00 0.48 0.48 76 1008.8
20260506220509 21 215 3.2 14.5 0.00 0.48 0.48 76 1008.8
20260506220020 21 246 6.4 12.9 0.00 0.48 0.48 76 1008.8
20260506215507 21 213 1.6 12.9 0.00 0.48 0.48 75 1008.8
20260506215003 21 166 1.6 12.9 0.00 0.48 0.48 75 1008.7
20260506214519 21 202 4.8 14.5 0.00 0.48 0.48 75 1008.8
20260506214006 21 227 3.2 14.5 0.00 0.48 0.48 75 1008.5
20260506213508 21 192 3.2 12.9 0.00 0.48 0.48 75 1008.4
20260506213024 21 252 1.6 12.9 0.00 0.48 0.48 75 1008.4
20260506212505 21 174 1.6 12.9 0.00 0.48 0.48 75 1008.3
20260506212004 21 198 1.6 16.1 0.00 0.48 0.48 75 1008.2
20260506211511 21 256 6.4 16.1 0.00 0.48 0.48 74 1008.3
20260506211006 21 17 6.4 16.1 0.00 0.48 0.48 74 1008.4
20260506210503 21 229 6.4 17.7 0.00 0.48 0.48 74 1008.3
20260506210019 21 236 6.4 17.7 0.00 0.48 0.48 73 1008.2
20260506205509 21 274 6.4 17.7 0.00 0.48 0.48 73 1008.0
20260506205007 22 255 8.0 17.7 0.00 0.48 0.48 73 1008.0
20260506204520 22 217 8.0 17.7 0.00 0.48 0.48 73 1008.0
20260506204006 22 214 3.2 14.5 0.00 0.48 0.48 73 1008.1
20260506203507 22 267 4.8 16.1 0.00 0.48 0.48 73 1008.1
20260506203008 22 129 4.8 20.9 0.00 0.48 0.48 72 1008.1
20260506202505 22 31 4.8 20.9 0.00 0.48 0.48 73 1008.0
20260506202006 22 240 6.4 19.3 0.00 0.48 0.48 72 1007.9
20260506201509 22 164 4.8 17.7 0.00 0.48 0.48 71 1008.1
20260506201003 22 258 8.0 17.7 0.00 0.48 0.48 70 1007.9
20260506200504 22 161 8.0 17.7 0.00 0.48 0.48 71 1008.1
20260506200013 22 119 3.2 14.5 0.00 0.48 0.48 72 1007.9
20260506195504 22 123 3.2 19.3 0.00 0.48 0.48 72 1007.9
20260506195004 22 196 6.4 24.1 0.00 0.48 0.48 73 1008.0
20260506194515 22 192 6.4 24.1 0.00 0.48 0.48 72 1008.1
20260506194007 22 213 4.8 20.9 0.00 0.48 0.48 73 1008.2
20260506193506 22 166 6.4 20.9 0.00 0.48 0.48 72 1008.1
20260506193022 22 165 9.7 19.3 0.00 0.48 0.48 71 1008.2
20260506192511 22 248 9.7 19.3 0.00 0.48 0.48 73 1008.1
20260506192009 22 146 4.8 20.9 0.00 0.48 0.48 73 1008.3
20260506191526 21 266 6.4 20.9 0.00 0.48 0.48 74 1008.4
20260506191006 21 182 4.8 14.5 0.00 0.48 0.48 75 1008.5
20260506190504 21 214 4.8 16.1 0.00 0.48 0.48 76 1008.5
20260506190015 21 182 4.8 19.3 0.00 0.48 0.48 76 1008.5
20260506185507 21 221 8.0 27.4 0.00 0.48 0.48 76 1008.6
20260506185006 21 196 9.7 27.4 0.00 0.48 0.48 75 1008.7
20260506184536 21 169 11.3 24.1 0.00 0.48 0.48 76 1008.8
20260506184010 21 217 9.7 24.1 0.00 0.48 0.48 76 1008.8
20260506183506 21 166 9.7 22.5 0.00 0.48 0.48 76 1008.7
20260506183022 20 205 4.8 14.5 0.00 0.48 0.48 77 1008.8
20260506182505 20 202 3.2 27.4 0.00 0.48 0.48 78 1008.9
20260506182010 20 277 11.3 27.4 0.00 0.48 0.48 77 1008.9
20260506181531 20 178 6.4 20.9 0.00 0.48 0.48 78 1008.9
20260506181015 20 205 4.8 29.0 0.00 0.48 0.48 79 1009.0
20260506180509 20 131 1.6 29.0 0.00 0.48 0.48 80 1009.0
20260506180033 20 164 9.7 24.1 0.00 0.48 0.48 79 1009.2
20260506175510 20 180 6.4 37.0 0.00 0.48 0.48 80 1009.1
20260506175003 19 231 12.9 37.0 0.00 0.48 0.48 80 1009.2
20260506174511 19 256 11.3 29.0 0.00 0.48 0.48 81 1009.1
20260506174003 19 272 8.0 25.7 0.00 0.48 0.48 83 1009.2
20260506173505 19 209 8.0 25.7 0.00 0.48 0.48 82 1009.1
20260506173020 19 236 6.4 19.3 0.00 0.48 0.48 83 1009.1
20260506172506 18 201 8.0 19.3 0.00 0.48 0.48 84 1009.3
20260506172008 18 232 8.0 19.3 0.00 0.48 0.48 84 1009.3
20260506171522 18 205 6.4 19.3 0.00 0.48 0.48 85 1009.5
20260506171004 18 265 3.2 20.9 0.00 0.48 0.48 85 1009.3
20260506170504 18 265 4.8 24.1 0.00 0.48 0.48 86 1009.3
20260506170020 18 179 9.7 24.1 0.00 0.48 0.48 87 1009.4
20260506165509 18 245 9.7 20.9 0.00 0.48 0.48 88 1009.4
20260506165009 18 186 6.4 19.3 0.00 0.48 0.48 89 1009.5
20260506164535 17 157 8.0 19.3 0.00 0.48 0.48 89 1009.4
20260506164011 17 116 6.4 16.1 0.00 0.48 0.48 89 1009.5
20260506163507 17 205 3.2 16.1 0.03 0.48 0.48 90 1009.6
20260506163013 17 294 1.6 27.4 0.03 0.48 0.48 90 1009.5
20260506162506 17 160 8.0 27.4 0.03 0.48 0.48 90 1009.4
20260506162007 17 188 6.4 17.7 0.03 0.48 0.48 91 1009.6
20260506161522 17 195 4.8 24.1 0.03 0.48 0.48 91 1009.4
20260506161006 17 228 8.0 24.1 0.03 0.48 0.48 92 1009.7
20260506160507 17 190 6.4 20.9 0.03 0.48 0.48 92 1009.7
20260506160024 17 286 3.2 17.7 0.05 0.48 0.48 92 1009.9
20260506155511 16 193 3.2 17.7 0.05 0.48 0.48 92 1010.0
20260506155010 16 267 4.8 17.7 0.08 0.48 0.48 92 1009.9
20260506154522 16 118 3.2 17.7 0.13 0.48 0.48 92 1010.0
20260506154008 16 165 6.4 14.5 0.15 0.48 0.48 92 1009.8
20260506153510 16 223 3.2 19.3 0.18 0.46 0.46 92 1009.7
20260506153024 16 118 8.0 19.3 0.20 0.46 0.46 92 1009.6
20260506152509 16 150 4.8 14.5 0.23 0.46 0.46 92 1010.0
20260506152009 16 147 3.2 16.1 0.23 0.46 0.46 92 1010.2
20260506151520 16 201 6.4 16.1 0.25 0.46 0.46 92 1010.3
20260506151006 16 232 4.8 14.5 0.28 0.46 0.46 92 1010.5
20260506150507 16 179 3.2 16.1 0.30 0.46 0.46 92 1010.7
20260506150020 16 218 8.0 16.1 0.30 0.43 0.43 91 1010.7
20260506145506 16 171 6.4 19.3 0.33 0.43 0.43 91 1010.6
20260506145007 16 197 6.4 19.3 0.36 0.41 0.41 91 1010.7
20260506144527 16 150 6.4 14.5 0.30 0.36 0.36 91 1010.7
20260506144013 16 240 4.8 14.5 0.30 0.33 0.33 90 1010.7
20260506143511 16 195 3.2 11.3 0.25 0.28 0.28 90 1010.7
20260506143031 16 198 3.2 20.9 0.25 0.25 0.25 90 1010.6
20260506142507 16 214 4.8 20.9 0.23 0.23 0.23 89 1010.6
20260506142009 16 182 1.6 14.5 0.23 0.23 0.23 89 1010.6
20260506141525 17 191 4.8 14.5 0.20 0.20 0.20 88 1010.7
20260506141014 17 207 1.6 11.3 0.18 0.18 0.18 87 1010.7
20260506140508 17 207 3.2 14.5 0.15 0.15 0.15 87 1010.8
20260506140021 17 207 6.4 14.5 0.13 0.13 0.13 86 1010.8
20260506135507 17 126 3.2 14.5 0.10 0.10 0.10 86 1010.8
20260506135009 17 217 4.8 16.1 0.05 0.05 0.05 84 1010.9
20260506134518 17 147 4.8 16.1 0.05 0.05 0.05 83 1011.0
20260506134017 17 195 9.7 17.7 0.03 0.03 0.03 82 1011.1
20260506133508 18 181 6.4 17.7 0.03 0.03 0.03 80 1011.1
20260506133028 18 192 3.2 17.7 0.00 0.00 0.00 81 1011.0
20260506132511 18 196 4.8 19.3 0.00 0.00 0.00 80 1010.9
20260506132010 18 192 1.6 19.3 0.00 0.00 0.00 79 1010.8
20260506131516 18 114 3.2 16.1 0.00 0.00 0.00 78 1010.7
20260506131007 18 173 4.8 17.7 0.00 0.00 0.00 78 1010.7
20260506130507 18 202 6.4 17.7 0.00 0.00 0.00 79 1010.4
20260506130016 18 213 0.0 16.1 0.00 0.00 0.00 79 1010.4
20260506125507 18 136 6.4 17.7 0.00 0.00 0.00 78 1010.2
20260506125003 18 198 6.4 17.7 0.00 0.00 0.00 78 1010.3
20260506124509 18 188 4.8 12.9 0.00 0.00 0.00 77 1010.4
20260506124006 18 178 3.2 12.9 0.00 0.00 0.00 77 1010.5
20260506123503 18 238 4.8 17.7 0.00 0.00 0.00 76 1010.6
20260506123008 18 234 6.4 17.7 0.00 0.00 0.00 76 1010.7
20260506122505 18 155 3.2 14.5 0.00 0.00 0.00 76 1010.8
20260506122004 18 211 4.8 20.9 0.00 0.00 0.00 76 1010.9
20260506121508 18 191 4.8 20.9 0.00 0.00 0.00 76 1010.9
20260506121004 18 138 6.4 14.5 0.00 0.00 0.00 75 1010.8
20260506120504 18 194 4.8 14.5 0.00 0.00 0.00 74 1010.9
20260506120017 18 163 6.4 16.1 0.00 0.00 0.00 73 1010.8
20260506115506 18 191 4.8 19.3 0.00 0.00 0.00 73 1010.7
20260506115006 18 172 8.0 22.5 0.00 0.00 0.00 73 1010.7
20260506114526 19 145 8.0 22.5 0.00 0.00 0.00 73 1010.6
20260506114007 19 171 9.7 25.7 0.00 0.00 0.00 72 1010.4
20260506113510 19 159 3.2 25.7 0.00 0.00 0.00 73 1010.4
20260506113021 19 223 4.8 27.4 0.00 0.00 0.00 73 1010.2
20260506112504 19 169 11.3 27.4 0.00 0.00 0.00 73 1010.1
20260506112002 18 225 6.4 22.5 0.00 0.00 0.00 74 1010.2
20260506111507 18 182 4.8 16.1 0.00 0.00 0.00 75 1010.2
20260506111004 18 186 4.8 17.7 0.00 0.00 0.00 75 1010.1
20260506110507 18 184 6.4 19.3 0.00 0.00 0.00 75 1010.1
20260506110012 18 196 4.8 19.3 0.00 0.00 0.00 75 1010.1
20260506105506 18 171 3.2 17.7 0.00 0.00 0.00 75 1009.9
20260506105004 18 192 1.6 17.7 0.00 0.00 0.00 75 1010.1
20260506104510 18 143 4.8 14.5 0.00 0.00 0.00 75 1010.1
20260506104006 18 196 4.8 17.7 0.00 0.00 0.00 75 1010.0
20260506103506 18 180 4.8 17.7 0.00 0.00 0.00 75 1009.9
20260506103025 18 160 4.8 16.1 0.00 0.00 0.00 75 1010.0
20260506102511 18 182 3.2 19.3 0.00 0.00 0.00 74 1009.9
20260506102011 18 167 8.0 19.3 0.00 0.00 0.00 75 1010.0
20260506101524 18 176 1.6 19.3 0.00 0.00 0.00 74 1010.0
20260506101002 18 228 9.7 19.3 0.00 0.00 0.00 74 1009.8
20260506100506 18 145 4.8 22.5 0.00 0.00 0.00 74 1009.9
20260506100012 18 196 3.2 22.5 0.00 0.00 0.00 74 1009.9
20260506095504 18 171 4.8 19.3 0.00 0.00 0.00 74 1009.8
20260506095004 18 177 3.2 17.7 0.00 0.00 0.00 74 1010.0
20260506094517 18 142 3.2 19.3 0.00 0.00 0.00 74 1010.0
20260506094006 18 238 6.4 19.3 0.00 0.00 0.00 74 1010.0
20260506093508 18 185 6.4 16.1 0.00 0.00 0.00 74 1010.0
20260506093020 18 184 4.8 17.7 0.00 0.00 0.00 73 1010.0
20260506092504 18 115 4.8 19.3 0.00 0.00 0.00 73 1010.0
20260506092007 18 139 3.2 19.3 0.00 0.00 0.00 73 1010.0
20260506091520 18 195 6.4 16.1 0.00 0.00 0.00 72 1010.0
20260506091008 18 146 4.8 16.1 0.00 0.00 0.00 72 1010.1
20260506090508 19 217 6.4 16.1 0.00 0.00 0.00 72 1010.0
20260506090026 19 174 6.4 20.9 0.00 0.00 0.00 71 1010.0